User: anonymous   Login
Location: Newark
(44.7667°N, 12.1333°E)
Time: 22:22:17
(UTC+00:00)
Language:

LightSail 2 - Orbit

View from above orbital plane
View from above orbital plane
View from above satellite
View from above satellite

Ground track
Ground track

The orbit data is extracted from the following two-line orbital elements,

1 44420U 19036AC  19347.32943387  .00003339  00000-0  72693-3 0  9994
2 44420  24.0102 208.4921 0023830 246.4338 113.3696 14.53877309 23031
Epoch (UTC): 13 December 2019 07:54:23
Eccentricity: 0.0023830
inclination: 24.0102°
perigee height: 696 km
apogee height: 730 km
right ascension of ascending node: 208.4921°
argument of perigee: 246.4338°
revolutions per day: 14.53877309
mean anomaly at epoch: 113.3696°
orbit number at epoch: 2303

The dashed part of the orbit path shows where the satellite is in the earth's shadow,  

DLR